Theta_e
305 305 304 304 304 303 303 303 303 303 304 304 304 304 304 304 304 304 303 303 303 303 303 303 302 302 302 302 302 302 302 302 302 303 302 302 303 302 303 303 302 302
305 305 305 304 304 303 303 303 302 302 303 302 302 303 304 304 303 303 303 303 303 303 303 302 302 301 301 301 301 301 301 301 301 301 301 301 301 301 301 302 302 301
305 305 305 304 304 304 303 303 302 302 302 302 302 302 303 303 302 302 302 302 302 302 302 302 301 301 300 300 300 299 300 300 300 300 300 300 300 300 300 300 300 300
305 305 305 304 304 304 303 303 302 302 302 301 301 302 302 302 301 301 301 302 301 301 301 301 300 300 299 299 298 298 298 298 298 298 298 298 299 299 299 298 298 299
304 304 304 304 304 304 303 302 302 302 302 301 301 301 301 301 301 300 300 300 300 299 300 300 299 299 298 298 297 297 297 297 296 296 296 296 297 297 297 297 297 297
303 303 303 304 304 303 303 302 302 302 301 301 301 300 300 300 300 300 299 299 298 298 298 298 298 298 298 297 296 296 296 295 295 295 295 295 295 295 295 295 295 295
302 302 302 303 303 303 303 302 302 301 301 301 300 299 299 299 299 299 299 298 298 297 297 297 297 297 297 296 295 295 295 294 294 294 294 294 294 294 294 293 294 294
302 301 301 302 302 303 303 302 302 301 301 300 299 299 299 299 298 298 298 297 297 296 296 296 296 296 296 295 294 294 294 293 293 293 293 293 293 293 292 292 292 293
301 300 300 301 301 302 302 302 301 301 300 300 299 299 299 298 298 298 297 296 296 295 295 295 295 295 294 294 293 293 292 292 292 292 292 291 291 291 291 291 291 291
300 300 300 300 300 301 301 301 301 300 300 299 299 298 298 298 297 297 296 296 295 295 295 295 295 294 293 293 292 292 291 291 291 291 290 290 290 290 290 290 290 290
299 299 299 299 300 300 301 301 300 300 300 299 298 298 298 297 297 296 296 295 294 294 294 294 294 293 292 292 292 291 290 290 290 289 289 289 289 289 289 289 288 289
299 299 299 299 299 300 300 300 300 299 299 299 298 297 297 296 296 296 295 294 294 293 293 293 293 292 291 291 291 290 289 289 289 288 288 288 288 288 288 287 287 287
298 298 298 298 298 299 299 299 299 299 298 298 297 297 296 296 296 295 294 293 293 292 292 292 292 291 290 290 290 289 289 288 288 287 287 287 287 287 287 286 286 286
297 297 297 297 297 297 298 298 298 298 297 297 296 296 296 295 295 295 294 293 292 292 291 291 290 290 289 289 289 288 288 287 287 286 286 286 286 285 285 285 285 285
297 296 296 296 296 296 296 296 296 296 296 296 295 295 295 295 294 293 292 292 291 291 290 290 289 289 289 289 288 288 287 287 286 285 285 285 284 284 284 284 284 283
296 295 295 295 294 295 295 295 295 295 295 295 295 294 294 293 292 292 291 291 291 290 290 290 289 289 289 288 287 287 286 286 285 285 284 284 284 283 283 282 282 282
295 294 294 294 293 293 293 293 294 294 294 294 294 293 293 292 291 291 290 290 290 289 289 289 289 289 288 287 286 286 285 285 284 284 283 283 282 282 282 281 281 281
294 294 293 293 292 292 292 292 292 292 293 293 292 292 291 290 290 290 290 289 289 288 288 288 288 288 287 286 285 285 284 284 284 283 283 282 281 281 281 281 280 279
293 293 292 292 291 291 291 290 291 291 291 291 291 291 290 290 290 289 289 288 288 288 288 287 288 287 286 285 284 284 284 283 282 282 282 281 281 281 281 280 279 279
292 291 291 290 290 289 289 289 289 289 289 290 289 289 289 289 289 288 288 288 287 287 287 287 287 287 285 284 284 283 282 282 281 281 281 281 281 280 280 280 279 279
291 290 289 289 288 288 287 287 287 288 288 288 288 288 288 288 288 288 288 287 287 286 285 285 286 286 284 283 283 282 281 281 280 280 280 280 280 279 279 279 279 279
289 288 288 287 287 286 286 286 286 286 287 287 287 287 287 287 287 287 287 287 286 285 284 284 284 284 283 283 282 281 280 279 279 279 279 278 278 278 277 277 278 279
287 287 286 286 286 285 285 285 285 285 286 286 286 286 286 286 285 286 286 285 285 284 283 283 283 283 283 282 281 280 279 279 278 278 277 277 277 276 276 277 277 278
286 285 285 285 285 285 285 285 285 285 285 285 285 284 284 284 284 284 284 284 284 284 283 282 282 283 282 281 280 279 279 278 278 277 276 276 276 276 276 276 277 278
285 284 284 284 284 284 284 284 284 284 284 284 284 283 283 283 283 283 283 283 283 283 282 282 282 282 282 280 279 279 279 278 278 276 276 275 275 275 275 276 277 277
284 284 283 283 283 283 283 283 283 283 283 283 283 282 282 282 282 282 282 282 282 281 281 281 280 281 280 280 279 278 278 278 277 276 275 275 275 275 275 275 275 276
Wind_Speed
32 31 29 27 26 23 21 19 19 19 19 18 16 15 16 18 18 18 18 18 17 17 16 14 13 12 13 14 14 15 16 16 17 17 18 19 20 22 24 26 27 29
35 33 32 30 28 26 23 21 20 19 19 19 18 18 19 20 19 19 20 19 18 18 18 17 15 13 13 14 14 15 16 17 17 18 18 19 19 21 23 24 26 28
38 35 34 32 30 29 25 21 20 20 20 20 19 19 20 20 19 19 20 20 20 19 19 18 17 15 14 14 14 15 16 17 18 18 19 19 20 21 22 23 25 27
39 37 35 34 31 29 26 22 21 21 21 21 20 19 19 20 19 20 21 21 20 20 19 18 17 16 15 14 14 15 16 17 18 18 18 19 20 21 21 22 24 26
35 36 35 33 31 30 27 24 23 23 22 22 21 19 19 19 20 20 21 21 20 19 19 17 17 16 15 15 15 15 17 17 17 17 18 19 20 21 21 22 23 24
30 33 34 32 31 30 29 27 26 24 23 22 20 19 18 19 19 20 20 19 19 18 17 16 16 16 16 15 15 16 17 17 17 17 17 18 20 20 21 21 22 23
25 29 32 32 31 31 30 28 27 25 23 22 20 19 18 18 19 19 19 18 18 17 17 16 16 16 16 15 15 16 17 17 17 17 17 18 19 20 21 21 21 22
21 24 27 29 30 31 31 30 28 26 24 22 21 20 19 18 18 19 19 18 17 17 17 16 16 16 15 15 16 17 17 17 17 17 17 18 19 20 21 20 21 21
19 21 24 26 29 31 32 31 29 27 24 22 21 21 20 18 19 19 19 18 18 17 17 16 16 16 16 16 16 16 17 17 17 17 18 18 19 20 21 20 20 21
18 20 22 25 28 31 32 31 29 27 25 23 22 22 21 20 19 19 19 19 18 18 17 17 17 16 16 16 16 16 16 16 17 17 18 19 19 20 20 20 20 21
18 19 21 24 27 30 31 31 30 27 26 24 24 23 22 21 20 20 20 20 19 18 18 17 17 17 16 16 16 16 17 17 17 17 18 18 19 20 20 20 20 21
18 19 20 23 25 29 31 30 29 28 26 25 24 24 22 21 21 21 21 21 20 18 18 17 17 17 16 17 17 16 17 17 17 18 18 18 19 20 20 20 20 21
18 19 19 21 24 27 29 29 28 27 26 25 24 23 22 21 21 21 21 20 19 18 17 17 17 17 17 17 17 17 17 17 18 18 18 19 19 20 20 20 20 21
18 18 19 20 22 25 27 27 27 27 26 24 23 22 22 21 21 21 20 20 19 18 18 17 17 18 18 18 18 17 17 17 18 18 19 19 19 19 20 20 20 20
17 18 18 18 20 23 25 26 26 26 25 24 23 22 22 21 21 21 21 20 19 19 18 18 18 19 19 19 18 18 18 18 18 18 19 20 20 20 20 20 20 20
16 17 17 17 19 21 24 25 26 25 25 24 23 23 23 23 22 22 21 21 20 20 20 20 20 20 19 19 18 18 18 18 19 19 20 20 21 20 20 20 20 21
15 16 16 17 18 20 22 24 25 25 25 24 24 24 24 24 23 23 22 22 21 21 21 21 20 20 19 19 19 18 18 19 19 20 21 21 21 22 22 22 22 22
15 15 15 16 17 19 21 23 24 24 25 25 25 25 25 24 24 24 23 22 22 22 22 21 20 19 19 19 19 19 19 19 20 21 21 22 23 23 23 24 25 25
14 14 15 16 17 18 20 22 23 25 25 25 26 25 25 25 24 24 23 23 23 23 22 22 20 20 19 19 20 20 19 20 21 22 22 24 25 25 26 27 28 27
13 13 14 15 16 17 19 21 23 24 25 25 25 25 25 25 25 24 24 24 23 23 23 23 21 20 19 19 19 20 20 21 22 22 23 24 26 26 28 29 30 30
12 12 13 14 15 17 19 21 23 24 24 24 25 25 25 25 25 25 25 24 24 24 24 24 22 20 19 19 20 19 19 21 22 22 23 25 26 27 29 30 31 31
12 12 12 13 15 16 18 21 22 23 24 24 25 25 26 26 26 26 26 25 25 24 24 24 23 21 20 20 20 19 19 21 23 23 24 25 26 28 29 30 31 31
12 12 12 13 14 16 18 20 22 23 24 24 25 26 26 27 27 27 25 25 25 25 25 24 23 22 20 20 20 19 20 22 24 24 25 25 26 28 29 30 31 30
12 11 12 13 15 16 18 20 21 23 24 24 25 25 26 26 26 25 25 24 25 25 24 24 24 22 21 21 21 20 21 23 24 25 26 26 27 29 30 30 30 29
11 11 12 13 15 16 17 19 21 22 23 24 24 25 25 25 24 24 25 25 24 24 23 23 23 23 22 22 21 21 23 25 26 26 27 27 28 29 29 29 30 29
11 11 11 12 14 15 16 18 19 20 21 22 23 23 22 22 23 23 24 25 24 23 23 23 23 23 22 22 22 23 24 26 27 29 30 30 30 29 27 26 28 29
Wind_Direction
250 249 250 249 248 248 247 247 248 248 249 248 245 245 244 242 242 241 241 242 244 248 254 257 254 251 250 248 248 249 250 251 252 252 252 251 249 247 245 242 240 238
249 248 248 247 247 247 246 245 247 248 250 251 248 246 244 244 244 245 245 246 247 247 250 256 257 252 251 250 249 249 249 250 251 253 253 253 251 248 246 245 243 240
247 247 247 246 246 247 247 245 247 248 249 250 249 245 244 243 246 248 249 249 250 248 245 249 254 254 252 251 251 249 248 248 247 249 251 252 253 251 250 248 244 242
247 247 246 246 246 248 248 246 246 246 246 248 248 245 244 244 246 248 248 249 250 248 243 243 249 254 254 252 251 251 251 250 247 246 247 247 250 250 250 248 244 242
251 249 248 246 246 247 247 245 244 244 245 246 247 245 243 243 245 246 247 247 246 244 241 241 245 251 254 252 250 250 251 251 250 248 247 247 249 249 249 246 243 241
257 252 250 247 245 245 246 245 244 244 244 244 244 243 241 241 243 243 244 243 242 240 240 241 244 248 251 249 248 249 250 251 251 249 247 248 249 249 248 245 243 242
262 257 252 248 245 244 243 243 244 243 241 240 240 240 237 237 240 240 240 240 239 240 241 242 245 246 248 247 246 248 249 251 252 250 248 247 249 250 248 245 243 242
267 261 255 249 244 240 238 239 240 239 237 235 236 237 234 233 236 237 238 238 238 240 241 241 244 245 246 244 245 247 248 250 250 249 248 246 246 248 247 245 243 240
268 262 256 249 242 238 236 236 237 235 234 233 233 233 231 230 233 235 236 236 237 240 240 241 243 244 244 244 245 247 249 250 249 247 247 246 244 245 244 242 240 237
267 261 255 248 241 237 235 234 234 234 232 231 230 230 229 228 230 232 233 234 235 238 240 242 243 243 243 244 245 247 248 249 248 247 246 245 243 242 242 241 237 234
268 262 256 250 242 237 234 233 233 233 231 230 229 227 226 226 228 229 230 232 233 235 239 242 243 242 243 243 245 246 247 247 247 246 245 244 243 241 240 239 236 232
270 265 259 253 245 238 235 234 233 232 231 230 228 226 225 225 227 228 230 232 233 234 237 241 242 242 241 242 244 245 246 246 245 244 243 242 241 240 239 236 234 230
276 272 266 260 252 243 238 236 234 233 231 230 228 226 225 225 226 228 230 231 232 234 236 240 241 241 241 241 242 244 244 244 243 241 240 239 238 236 235 232 230 226
285 280 274 266 257 248 241 238 235 233 231 230 228 225 224 226 228 229 229 229 231 234 235 238 239 239 240 241 241 242 242 241 241 239 237 234 232 231 229 228 226 223
291 285 279 271 259 249 242 238 235 233 230 228 227 226 225 226 227 227 228 229 231 232 234 236 238 239 240 241 241 241 240 239 238 236 234 231 227 224 222 221 219 216
294 289 282 273 262 251 243 237 234 231 229 227 226 225 225 225 225 226 227 229 230 232 233 235 237 240 241 242 242 241 240 238 235 233 231 228 224 220 216 213 211 208
298 293 285 275 264 254 244 238 234 230 228 227 225 224 224 224 225 226 227 228 230 232 234 235 238 241 241 240 240 239 238 236 233 230 226 224 222 218 212 206 202 198
301 295 287 277 266 255 246 239 233 230 227 225 224 224 224 224 225 227 228 230 231 233 235 236 238 241 240 239 239 238 236 233 231 228 224 221 219 215 211 203 195 191
303 295 286 277 266 256 247 238 233 229 226 225 225 225 224 225 227 229 229 230 232 234 236 236 238 239 239 238 238 238 236 232 229 227 223 220 217 213 209 202 194 188
305 295 284 275 265 255 246 237 232 229 227 226 225 225 225 226 228 229 230 232 233 235 237 237 238 239 237 236 236 238 237 232 229 227 223 221 218 213 208 202 195 189
306 295 284 274 263 253 244 237 233 229 227 226 225 226 227 228 229 230 231 233 234 235 236 237 239 238 237 235 234 234 234 232 230 226 222 220 217 212 208 202 196 192
308 295 283 272 261 251 243 237 233 231 229 227 227 228 228 229 230 231 232 234 235 234 235 237 239 238 235 233 231 227 225 227 227 223 219 217 214 209 205 200 196 193
311 296 283 271 259 249 242 238 235 233 231 229 229 229 229 229 230 231 232 234 234 234 235 236 238 239 235 232 229 220 216 220 222 217 215 213 209 205 201 198 196 197
314 298 285 272 260 252 246 241 237 234 232 231 230 231 232 232 233 233 235 236 236 237 238 237 239 240 237 232 227 217 214 218 218 212 210 208 204 200 198 198 199 201
318 302 289 275 267 261 253 246 241 237 235 234 232 233 235 236 236 236 237 239 240 240 239 238 240 241 237 232 225 215 213 218 216 209 205 203 199 197 196 198 200 202
321 308 296 282 274 269 260 253 246 240 237 237 234 234 235 237 238 237 238 241 241 241 240 238 238 240 237 232 225 215 213 217 215 208 204 199 195 194 194 196 200 202